Météo par heure à Bedford

Ce jour, 2 Octobre, Vendredi

Heure Température Précipitation Vent Pression Humidité
00:00 +9°C° 0 mm 5 m/s 740 mmHg 80%
01:00 +9°C° 0 mm 5 m/s 740 mmHg 80%
02:00 +9°C° 0 mm 5 m/s 739 mmHg 81%
03:00 +9°C° 0 mm 6 m/s 739 mmHg 82%
04:00 +9°C° 0.4 mm 6 m/s 739 mmHg 83%
05:00 +10°C° 0.4 mm 7 m/s 739 mmHg 83%
06:00 +10°C° 0.4 mm 7 m/s 738 mmHg 83%
07:00 +10°C° 1.3 mm 7 m/s 739 mmHg 84%
08:00 +10°C° 1.3 mm 8 m/s 739 mmHg 86%
09:00 +10°C° 1.3 mm 8 m/s 739 mmHg 87%
10:00 +11°C° 0.9 mm 8 m/s 739 mmHg 87%
11:00 +11°C° 0.9 mm 8 m/s 740 mmHg 88%
12:00 +11°C° 0.9 mm 7 m/s 740 mmHg 88%
13:00 +11°C° 0.6 mm 7 m/s 740 mmHg 88%
14:00 +11°C° 0.6 mm 7 m/s 740 mmHg 88%
15:00 +11°C° 0.6 mm 6 m/s 740 mmHg 88%
16:00 +11°C° 1.2 mm 7 m/s 740 mmHg 89%
17:00 +11°C° 1.2 mm 7 m/s 740 mmHg 90%
18:00 +11°C° 1.2 mm 7 m/s 740 mmHg 91%
19:00 +11°C° 1.4 mm 7 m/s 740 mmHg 92%
20:00 +12°C° 1.4 mm 8 m/s 740 mmHg 93%
21:00 +12°C° 1.4 mm 8 m/s 740 mmHg 94%
22:00 +12°C° 1.9 mm 8 m/s 740 mmHg 94%
23:00 +12°C° 1.9 mm 8 m/s 739 mmHg 94%

Demain, 3 Octobre, Samedi

Heure Température Précipitation Vent Pression Humidité
00:00 +13°C° 1.9 mm 8 m/s 739 mmHg 94%
01:00 +13°C° 0.6 mm 8 m/s 739 mmHg 94%
02:00 +14°C° 0.6 mm 7 m/s 739 mmHg 94%
03:00 +14°C° 0.6 mm 7 m/s 739 mmHg 94%
04:00 +14°C° 0.2 mm 7 m/s 739 mmHg 94%
05:00 +14°C° 0.2 mm 6 m/s 739 mmHg 93%
06:00 +14°C° 0.2 mm 6 m/s 739 mmHg 93%
07:00 +14°C° 0.3 mm 6 m/s 739 mmHg 93%
08:00 +14°C° 0.3 mm 5 m/s 739 mmHg 93%
09:00 +14°C° 0.3 mm 5 m/s 739 mmHg 93%
10:00 +13°C° 0.8 mm 5 m/s 738 mmHg 93%
11:00 +13°C° 0.8 mm 4 m/s 738 mmHg 94%
12:00 +13°C° 0.8 mm 4 m/s 737 mmHg 94%
13:00 +13°C° 0.5 mm 4 m/s 737 mmHg 93%
14:00 +13°C° 0.5 mm 4 m/s 736 mmHg 91%
15:00 +12°C° 0.5 mm 4 m/s 736 mmHg 90%
16:00 +12°C° 0.3 mm 4 m/s 735 mmHg 90%
17:00 +12°C° 0.3 mm 4 m/s 735 mmHg 90%
18:00 +12°C° 0.3 mm 3 m/s 734 mmHg 90%
19:00 +12°C° 0.4 mm 4 m/s 734 mmHg 90%
20:00 +11°C° 0.4 mm 4 m/s 733 mmHg 90%
21:00 +11°C° 0.4 mm 4 m/s 733 mmHg 89%
22:00 +11°C° 0.1 mm 4 m/s 733 mmHg 90%
23:00 +10°C° 0.1 mm 3 m/s 732 mmHg 90%

Après-demain, 4 Octobre, Dimanche

Heure Température Précipitation Vent Pression Humidité
00:00 +10°C° 0.1 mm 2 m/s 732 mmHg 91%
01:00 +9°C° 0 mm 2 m/s 732 mmHg 91%
02:00 +9°C° 0 mm 2 m/s 732 mmHg 92%
03:00 +9°C° 0 mm 2 m/s 731 mmHg 93%
04:00 +9°C° 0 mm 2 m/s 731 mmHg 94%
05:00 +8°C° 0 mm 2 m/s 731 mmHg 95%
06:00 +8°C° 0 mm 2 m/s 731 mmHg 96%
07:00 +9°C° 0 mm 2 m/s 731 mmHg 93%
08:00 +12°C° 0 mm 2 m/s 731 mmHg 90%
09:00 +13°C° 0 mm 2 m/s 732 mmHg 88%
10:00 +13°C° 0 mm 2 m/s 732 mmHg 83%
11:00 +14°C° 0 mm 2 m/s 732 mmHg 78%
12:00 +15°C° 0 mm 2 m/s 732 mmHg 73%
13:00 +15°C° 0.1 mm 2 m/s 732 mmHg 72%
14:00 +16°C° 0.1 mm 2 m/s 733 mmHg 71%
15:00 +16°C° 0.1 mm 3 m/s 733 mmHg 71%
16:00 +15°C° 0 mm 2 m/s 733 mmHg 75%
17:00 +14°C° 0 mm 2 m/s 733 mmHg 80%
18:00 +13°C° 0 mm 2 m/s 734 mmHg 84%
19:00 +12°C° 0 mm 2 m/s 734 mmHg 86%
20:00 +12°C° 0 mm 2 m/s 735 mmHg 88%
21:00 +12°C° 0 mm 2 m/s 736 mmHg 90%
22:00 +11°C° 0 mm 3 m/s 736 mmHg 90%
23:00 +11°C° 0 mm 3 m/s 736 mmHg 90%

5 Octobre, Lundi

Heure Température Précipitation Vent Pression Humidité
00:00 +10°C° 0 mm 3 m/s 736 mmHg 91%
01:00 +11°C° 0.3 mm 3 m/s 737 mmHg 92%
02:00 +11°C° 0.3 mm 4 m/s 737 mmHg 93%
03:00 +12°C° 0.3 mm 5 m/s 737 mmHg 94%
04:00 +11°C° 0.5 mm 6 m/s 737 mmHg 92%
05:00 +11°C° 0.5 mm 7 m/s 738 mmHg 90%
06:00 +11°C° 0.5 mm 7 m/s 738 mmHg 88%
07:00 +11°C° 0 mm 8 m/s 738 mmHg 87%
08:00 +11°C° 0 mm 8 m/s 739 mmHg 86%
09:00 +11°C° 0 mm 8 m/s 739 mmHg 85%
10:00 +11°C° 0 mm 9 m/s 740 mmHg 82%
11:00 +11°C° 0 mm 9 m/s 740 mmHg 80%
12:00 +11°C° 0 mm 9 m/s 741 mmHg 78%
13:00 +11°C° 0.1 mm 9 m/s 741 mmHg 79%
14:00 +12°C° 0.1 mm 9 m/s 742 mmHg 80%
15:00 +12°C° 0.1 mm 8 m/s 742 mmHg 81%
16:00 +11°C° 0.2 mm 8 m/s 743 mmHg 82%
17:00 +11°C° 0.2 mm 7 m/s 743 mmHg 84%
18:00 +11°C° 0.2 mm 7 m/s 744 mmHg 85%
19:00 +10°C° 0 mm 7 m/s 744 mmHg 85%
20:00 +10°C° 0 mm 6 m/s 745 mmHg 85%
21:00 +10°C° 0 mm 6 m/s 745 mmHg 86%
22:00 +10°C° 0 mm 6 m/s 745 mmHg 85%
23:00 +9°C° 0 mm 6 m/s 745 mmHg 85%

6 Octobre, Mardi

Heure Température Précipitation Vent Pression Humidité
00:00 +9°C° 0 mm 5 m/s 746 mmHg 85%
01:00 +8°C° 0 mm 5 m/s 745 mmHg 87%
02:00 +8°C° 0 mm 4 m/s 745 mmHg 88%
03:00 +8°C° 0 mm 3 m/s 745 mmHg 90%
04:00 +8°C° 0 mm 3 m/s 745 mmHg 91%
05:00 +8°C° 0 mm 3 m/s 745 mmHg 93%
06:00 +8°C° 0 mm 2 m/s 745 mmHg 94%
07:00 +9°C° 0 mm 2 m/s 745 mmHg 91%
08:00 +10°C° 0 mm 2 m/s 745 mmHg 87%
09:00 +13°C° 0 mm 1 m/s 745 mmHg 84%
10:00 +13°C° 0.2 mm 2 m/s 745 mmHg 85%
11:00 +13°C° 0.2 mm 2 m/s 745 mmHg 86%
12:00 +13°C° 0.2 mm 2 m/s 745 mmHg 86%
13:00 +13°C° 0.5 mm 2 m/s 745 mmHg 87%
14:00 +13°C° 0.5 mm 2 m/s 745 mmHg 87%
15:00 +13°C° 0.5 mm 2 m/s 745 mmHg 87%
16:00 +11°C° 0.2 mm 3 m/s 746 mmHg 87%
17:00 +11°C° 0.2 mm 3 m/s 746 mmHg 88%
18:00 +11°C° 0.2 mm 4 m/s 747 mmHg 88%
19:00 +10°C° 0.1 mm 4 m/s 747 mmHg 89%
20:00 +10°C° 0.1 mm 4 m/s 748 mmHg 89%
21:00 +8°C° 0.1 mm 5 m/s 748 mmHg 89%
22:00 +8°C° 0 mm 4 m/s 749 mmHg 90%
23:00 +8°C° 0 mm 4 m/s 749 mmHg 91%

7 Octobre, Mercredi

Heure Température Précipitation Vent Pression Humidité
00:00 +7°C° 0 mm 4 m/s 749 mmHg 91%
01:00 +7°C° 0 mm 4 m/s 750 mmHg 91%
02:00 +7°C° 0 mm 4 m/s 750 mmHg 92%
03:00 +7°C° 0 mm 5 m/s 750 mmHg 92%
04:00 +7°C° 0 mm 4 m/s 751 mmHg 91%
05:00 +6°C° 0 mm 4 m/s 751 mmHg 90%
06:00 +6°C° 0 mm 4 m/s 751 mmHg 89%
07:00 +7°C° 0 mm 4 m/s 751 mmHg 86%
08:00 +8°C° 0 mm 5 m/s 752 mmHg 82%
09:00 +9°C° 0 mm 5 m/s 752 mmHg 79%
10:00 +10°C° 0 mm 5 m/s 752 mmHg 75%
11:00 +12°C° 0 mm 5 m/s 752 mmHg 70%
12:00 +13°C° 0 mm 5 m/s 752 mmHg 66%
13:00 +13°C° 0.1 mm 4 m/s 752 mmHg 68%
14:00 +13°C° 0.1 mm 4 m/s 751 mmHg 69%
15:00 +14°C° 0.1 mm 3 m/s 751 mmHg 70%
16:00 +13°C° 0.2 mm 4 m/s 751 mmHg 76%
17:00 +12°C° 0.2 mm 4 m/s 751 mmHg 81%
18:00 +11°C° 0.2 mm 4 m/s 750 mmHg 86%
19:00 +11°C° 0.1 mm 4 m/s 750 mmHg 85%
20:00 +10°C° 0.1 mm 5 m/s 750 mmHg 84%
21:00 +9°C° 0.1 mm 6 m/s 750 mmHg 84%
22:00 +9°C° 0 mm 6 m/s 750 mmHg 85%
23:00 +8°C° 0 mm 6 m/s 750 mmHg 86%
Voir plus

We Need Your Consent

Meteoprog and our Service Providers may store and access personal data such as cookies, device identifiers or other similar technologies on your device and process such data to personalise content and ads, as well as provide social media features and to analyse the traffic.

  • Store and/or access information on your device

    Cookies, device identifiers or other information can be stored or accessed on your device for the purposes indicated above.

  • Personalised ads and content, ad and content measurement, audience insights, and products development

    Ads and content can be personalised based on a profile. More data can be added to better personalise ads and content. Ad and content performance can be measured. Insights about the audience who saw the ads and content can be derived. Such data can be used to develop or improve user’s experience, systems and software.

By clicking ‘I Agree’ you will allow the use of indicated cookies, device identifiers, web beacons or other similar technologies. Your settings can be changed in the browser on your device.

For certain purposes, legitimate interests may be relied on, rather than consent. You can read more about this in our Privacy and Cookie Policy.